Location: Unspecified
(0.0000°N, 0.0000°E)
Time: 09:30:10
(UTC+00:00)

ATLAS 5 CENTAUR DEB - Pass Details

Date: 23 December 2025
Orbit: 8806 x 35657 km, 13.3° (Epoch: 18 January)

Event Time Altitude Azimuth Distance (km) Brightness Sun altitude
Rises 22:45:05 0° 259° (W) 14,898 ? -60.5°
Reaches altitude 10° 22:54:21 10° 261° (W) 14,625 ? -61.8°
Maximum altitude 01:38:57 72° 316° (NW) 28,083 ? -56.3°
Drops below altitude 10° 11:34:17 10° 106° (ESE) 12,774 ? 65.8°
Sets 11:42:37 0° 104° (ESE) 13,787 ? 66.2°
